RH
95 75 97 81 62 40 29 7 3 11 19 28 32 36 40 43 44 44 46 43 42 43 40 44 52 53 48 36 42 45 42 39
86 97 74 48 37 33 7 3 8 15 27 29 35 38 41 42 42 44 46 47 50 48 46 54 52 56 51 48 40 36 40 64
72 58 46 49 51 8 6 11 17 27 31 33 38 41 42 43 43 43 45 48 52 53 52 56 57 59 49 39 37 32 30 34
40 37 40 43 28 11 24 21 28 34 35 37 40 42 44 46 49 50 49 53 56 58 59 63 57 60 61 52 38 31 36 28
24 29 27 25 25 32 27 32 39 41 42 42 42 44 45 50 55 58 67 74 77 69 75 71 66 55 48 39 31 28 36 30
17 19 26 31 35 33 36 41 45 46 48 52 52 53 57 64 66 61 76 99 82 80 85 77 64 48 32 26 26 28 28 31
20 30 34 38 40 42 44 44 48 60 65 73 71 76 76 82 92 97 92 93 93 86 79 64 62 46 38 33 29 32 30 27
28 32 37 35 36 41 45 50 58 56 60 79 83 87 92 99 92 84 96 98 94 73 62 50 41 42 38 37 34 35 32 23
37 42 44 43 43 45 60 80 65 68 68 74 86 90 96 96 98 100 97 66 65 55 48 46 45 44 47 44 39 29 18 15
54 59 68 76 84 84 78 67 53 70 72 75 85 83 85 64 49 53 60 53 48 48 50 48 49 52 45 25 14 14 18 29
62 71 71 69 93 97 61 64 69 78 83 81 56 42 39 38 41 44 49 54 58 52 41 38 31 18 14 15 16 10 22 28
69 73 77 97 68 39 44 50 56 54 43 36 36 37 42 48 49 44 50 53 44 29 22 17 14 12 13 13 8 11 7 29
75 80 85 62 32 42 48 45 39 35 36 41 44 47 46 44 45 43 36 25 21 18 16 13 10 8 7 7 6 5 30 36
80 81 48 32 36 38 39 38 40 45 49 55 55 55 54 50 39 29 22 19 17 13 10 9 7 5 4 6 6 8 14 43
79 41 37 38 39 43 49 56 61 60 65 64 64 64 65 45 28 25 22 17 13 10 7 5 4 4 4 7 17 45 28 33
45 42 46 49 55 58 63 72 78 72 76 73 76 64 44 34 27 20 18 14 10 7 5 5 4 4 6 11 15 32 47 51
44 50 54 56 61 65 67 72 74 76 78 80 81 60 41 27 22 18 15 12 8 6 5 4 4 5 8 22 20 78 98 92
45 50 57 62 65 68 75 80 82 86 88 87 69 48 32 24 20 16 12 8 6 5 5 5 6 48 95 97 60 97 96 96
50 53 58 62 65 69 79 82 88 86 78 59 52 37 26 21 17 12 8 6 5 5 5 8 70 100 99 51 97 98 100 100
52 53 57 62 67 68 79 91 96 93 61 55 40 27 22 19 14 9 6 5 5 17 73 82 98 98 84 81 100 96 98 100
Wind_Speed
17 14 14 14 10 9 8 9 10 10 10 10 9 7 5 3 2 3 6 9 12 13 15 18 21 22 22 20 18 16 14 14
16 12 11 9 9 10 11 12 12 11 10 10 10 7 4 2 2 4 8 12 14 15 17 20 24 25 25 21 21 18 18 14
15 12 11 11 10 13 11 9 10 11 12 12 9 7 5 5 4 7 12 14 16 17 19 22 25 28 32 27 26 21 19 17
11 13 13 12 10 10 10 13 13 12 11 9 10 7 6 7 8 8 12 15 18 20 22 24 27 28 28 30 27 25 24 23
10 10 11 12 12 13 12 11 9 7 6 7 8 11 12 13 13 12 13 16 16 21 26 26 29 31 30 29 30 27 27 28
12 13 13 13 15 13 10 9 7 7 6 8 11 16 19 19 25 22 16 16 19 23 26 31 35 35 33 33 33 35 34 32
14 14 13 13 13 12 12 11 8 5 8 13 15 15 19 23 28 31 30 23 22 25 30 33 35 37 37 41 40 41 42 42
12 13 12 12 11 11 11 11 9 11 17 21 21 22 23 25 21 18 16 19 21 28 33 35 36 39 41 43 46 46 47 45
11 10 9 8 10 12 12 8 19 23 25 29 25 24 21 26 15 11 19 26 26 31 36 39 42 45 47 49 48 44 41 40
11 9 8 10 10 15 14 17 12 16 26 25 29 24 18 21 22 23 25 29 33 37 41 44 45 45 48 49 46 41 38 37
10 10 11 14 16 16 12 9 8 10 14 16 16 16 17 21 25 27 29 34 39 42 42 42 46 47 46 46 41 42 37 38
14 15 15 16 12 11 8 8 8 8 9 12 13 16 20 24 30 30 33 37 41 43 44 44 45 46 46 48 45 40 41 35
17 16 14 13 10 7 6 6 7 8 10 14 17 21 24 26 31 35 38 40 42 44 46 47 43 43 47 49 49 45 31 28
16 13 12 10 8 7 7 8 10 11 15 18 23 25 30 33 36 37 39 40 41 43 44 45 43 43 44 49 50 48 40 31
14 11 11 10 7 7 9 12 12 15 21 26 29 30 34 36 37 38 39 40 41 42 43 45 43 44 42 45 45 42 47 44
10 10 9 7 9 12 14 10 14 22 25 29 33 38 37 36 37 38 39 39 40 40 40 45 44 45 46 43 44 45 44 50
10 8 7 10 13 15 18 19 23 28 31 34 38 38 37 37 38 38 39 39 39 41 43 40 43 44 45 44 44 42 38 31
11 12 12 12 15 19 22 25 28 28 36 38 39 37 37 38 38 38 38 38 37 37 39 40 42 38 38 39 35 26 26 28
15 16 16 17 20 23 27 30 30 31 34 38 37 38 38 38 38 38 37 36 37 37 37 36 34 35 36 42 23 24 26 25
18 20 21 23 26 30 34 33 37 36 38 37 37 37 38 40 40 39 38 36 37 36 26 25 30 27 37 27 25 22 22 23
Wind_Direction
171 186 172 166 178 202 210 188 184 176 165 158 151 149 141 119 82 6 337 332 338 342 344 345 344 343 342 346 343 336 332 343
158 174 161 173 202 209 192 189 184 174 161 168 176 171 167 192 267 291 309 321 329 331 333 336 338 334 335 333 341 343 346 342
162 169 182 193 208 193 191 188 176 176 179 186 190 195 206 237 269 285 302 312 316 320 321 325 334 333 332 331 331 339 337 332
181 193 201 203 195 188 190 189 185 186 195 201 215 229 250 266 272 284 291 302 307 306 311 316 321 328 320 320 321 326 330 328
191 191 182 180 183 190 188 182 185 198 220 249 268 272 280 276 275 276 293 301 300 307 312 312 316 318 313 311 312 317 318 318
171 169 174 179 184 182 180 182 195 214 239 273 277 282 284 289 290 273 284 295 294 302 307 308 314 314 309 308 313 315 313 312
169 174 181 183 191 194 197 206 219 247 282 281 273 289 293 289 303 301 269 276 293 302 306 307 308 308 311 310 311 311 311 309
175 185 191 205 222 233 241 245 245 273 271 289 291 298 290 286 291 284 259 279 294 302 302 304 305 305 305 304 306 308 307 306
193 202 218 238 257 256 249 240 282 270 273 265 293 314 299 288 266 261 302 308 307 307 304 303 304 305 304 304 305 302 302 303
214 226 251 267 276 264 302 282 262 261 278 271 288 303 310 307 312 322 321 314 306 301 298 298 296 296 297 299 300 304 304 301
232 246 262 273 293 302 304 286 279 277 278 289 293 299 308 315 315 312 308 303 299 299 297 296 296 298 298 298 301 306 303 302
244 257 268 290 285 281 285 280 279 285 289 285 298 308 312 312 307 304 298 295 295 296 298 300 302 305 305 301 305 305 306 312
243 255 264 264 270 265 269 276 278 285 301 311 310 311 306 302 298 300 300 301 301 302 304 304 304 303 302 303 303 305 302 296
248 245 250 250 246 244 256 275 288 300 313 316 313 312 309 306 305 304 302 303 303 303 303 303 304 303 302 300 301 298 296 269
227 240 246 251 256 259 280 297 306 309 315 314 316 313 308 307 306 305 305 306 305 304 303 302 304 301 300 298 300 296 296 296
234 231 253 256 271 288 290 277 269 299 299 308 314 312 310 307 306 307 308 307 305 304 303 302 301 300 298 294 290 291 295 295
222 242 269 281 280 278 285 281 283 292 300 301 307 307 307 309 310 312 311 310 309 306 304 302 298 295 292 292 294 289 290 297
233 256 266 269 276 281 277 277 285 307 301 306 307 309 311 314 315 315 314 312 309 306 304 302 300 298 285 286 298 295 298 291
247 256 253 272 283 284 275 276 277 309 310 310 311 313 314 315 317 319 318 315 311 309 305 302 298 287 286 299 296 290 292 295
251 252 257 270 278 285 286 278 282 315 318 316 315 315 317 320 321 321 319 319 317 316 310 299 287 293 294 302 297 297 299 293